Showing default

M3MSAT, 41605

Orbit data source: Space-Track

M3MSAT, 41605 is a Canadian payload satellite in SSO that was launched on Wed, 22 Jun 2016 UTC via a PSLV-XL launch vehicle from the Sirharikota (SRI). Payload-class satellites include a variety of spacecraft equipped with specific instruments for various scientific and technological missions. These include communications satellites like Starlink; space stations such as the ISS; scientific satellites like the Hubble; Earth observation satellites from companies like Planet Labs, Umbra, and HawkEye 360; GPS; miniature CubeSats for education and research; and military/defense satellites.

Loading next visibility...
Identifier
41605, 2016-040G
Orbit
SSO
Last TLE update
9 hours ago
Origin
Manufacturer
Honeywell/ComDev
Mission
Operational Defense Communications
Bus & Motor
MMMS, Unknown motor
Mass
85 kg wet, 85 kg dry
Launch date (UTC)
2016-06-22 (9 years ago)
Launch vehicle
PSLV-XL
Launch site
Sirharikota (SRI)
Object type
Payload
Rocket body
Debris
Shape & HBR
Box, 0.8 m
Radar Cross Section
0.800 m², Medium (>0.1 m² and < 1m²)

Expand to show TLE details & history

TLE from 9 hours ago
0 M3MSAT
1 41605U 16040G   25129.48572532  .00040074  00000-0  48243-3 0  9991
2 41605  97.0835 155.3983 0002926 317.1232  42.9797 15.60716958494465
Epoch: 2025-05-09T11:39Z
Definitive object data (Epoch: 2025-05-09T11:39:26.667Z)
Latitude
-0.00009°
Longitude
112.99601°
Altitude
387.291 km
Speed
7.678 km/s
True Right ascension
10h 21m 35s
True Declination
0° 00' 00"
Sunlit
Object was in daylight at TLE epoch
Visualization TLE readout
Latitude
-81.17545°
Longitude
-119.38371°
Altitude
412.504 km
Speed
7.663 km/s
Apparent Right ascension
17h 02m 34s
Apparent Declination
-61° 39' 37"
Sunlit
Object is in full shadow
Visualization observer readout
Local Sidereal Time
04:40:03
Azimuth
187.135° SSW
Elevation
-67.986°
Doppler factor
1
Orbital elements
Apogee altitude
384.461 km
Perigee altitude
380.505 km
Semi-major axis
6,760.62 km
Eccentricity
0.0002926
Inclination
97.0835°
RAAN
155.3983°
Arg. of periapsis
317.1232°
True anomaly
43.00256°
Mean anomaly
42.9797°
Eccentric anomaly
42.99113°
Mean motion
3.90448 °/min
BSTAR
0.00048243
Orbital period
92.2 mins
Loading maneuver chart data...
Loading SW <> Apogee altitude chart data...
Loading historical data...
Loading historical data...
Loading historical data...
Loading historical data...
Loading historical data...
Loading historical data...
Loading historical data...

M3MSAT Visibility forecast

Observer location: undefined°, undefined°

Span
Click to sort rows by Start time (UTC) header in descending order
Start Az.
Max El. time (UTC)
Max El. Az.
Max El.
End time (UTC)
End Az.
5 mins2025-05-10 01:37:55.253Z159.361° S2025-05-10 01:40:55.253Z50.992° ENE42.077°2025-05-10 01:42:55.253Z356.383° N
4 mins2025-05-10 14:22:55.253Z25.041° NE2025-05-10 14:24:55.253Z106.288° ESE40.102°2025-05-10 14:26:55.253Z176.296° S
|